Location: Utrecht
(52.0917°N, 5.1178°E)
Time: 06:03:20
(UTC+02:00)

Amateur Radio Satellites - All Passes

Search period start: 17 October 2017 05:33
Search period end: 18 October 2017 05:33
Location: Utrecht, 52.0917°N, 5.1178°E

Satellite Date Start Highest point End Downlink Frequencies (MHz)
Time Altitude Azimuth
ITUPSAT 1 17 Oct 05:41:44 05:44:09 14° 274° (W) 05:46:34 437.325
Gurwin Techsat 1B 17 Oct 05:45:49 05:49:10 17° 309° (NW) 05:52:30 435.225
Oscar 19 17 Oct 05:48:34 05:50:30 12° 313° (NW) 05:52:25 437.125/150
CUBESAT XI-V 17 Oct 05:49:36 05:53:47 33° 265° (W) 05:58:00 437.345
O/OREOS (USA 219) 17 Oct 05:55:50 05:58:44 16° 36° (NE) 06:01:37 437.305
KKS-1 17 Oct 06:09:20 06:13:41 55° 259° (W) 06:18:05 437.445
ITAMSAT 1 17 Oct 06:09:48 06:14:59 61° 291° (WNW) 06:20:08 435.822/435.867
AO-7 17 Oct 06:24:50 06:33:04 68° 297° (WNW) 06:41:16 .
XW-2D 17 Oct 06:37:35 06:39:00 12° 87° (E) 06:40:24 145.860 - 145.880
STRAND 1 17 Oct 06:38:19 06:42:11 22° 56° (NE) 06:46:05 437.568
NO-84 17 Oct 06:42:54 06:47:05 57° 150° (SSE) 06:51:07 435.350 FM
XW-2B 17 Oct 06:50:11 06:52:27 15° 89° (E) 06:54:43 145.730 - 145.750
STARS 17 Oct 06:54:00 06:58:13 46° 260° (W) 07:02:30 437.465
NUDT-PHONESAT 17 Oct 06:54:59 06:56:34 12° 88° (E) 06:58:09 437.300
DOVE 4 17 Oct 06:58:19 07:03:08 72° 102° (ESE) 07:08:12 437.250
XW-2C 17 Oct 07:12:31 07:15:41 26° 94° (E) 07:18:52 145.795 - 145.815
RS-15 17 Oct 07:27:11 07:38:53 46° 3° (N) 07:50:11 29.354- 29.394
O/OREOS (USA 219) 17 Oct 07:34:25 07:39:03 68° 59° (ENE) 07:43:38 437.305
CUTE-I 17 Oct 07:49:21 07:54:35 49° 99° (E) 07:59:47 437.470
ITAMSAT 1 17 Oct 07:50:55 07:53:29 14° 312° (NW) 07:56:02 435.822/435.867
LilacSat-2 17 Oct 07:57:15 08:01:03 82° 103° (ESE) 08:04:49 437.200
XW-2F 17 Oct 08:00:49 08:04:35 79° 105° (ESE) 08:08:18 145.980 - 146.000
KAITUO 1B 17 Oct 08:06:08 08:09:50 72° 103° (ESE) 08:13:31 145.475/437.950
CUTE 1.7 + AOD 2 17 Oct 08:06:08 08:09:36 24° 93° (E) 08:13:03 437.475
FO-29 17 Oct 08:08:26 08:12:36 24° 54° (NE) 08:17:02 435.910
XW-2D 17 Oct 08:09:56 08:13:42 76° 286° (WNW) 08:17:26 145.860 - 145.880
STRAND 1 17 Oct 08:15:45 08:20:53 75° 256° (WSW) 08:26:04 437.568
AO-7 17 Oct 08:18:21 08:24:31 24° 321° (NW) 08:30:41 .
NO-84 17 Oct 08:20:24 08:24:35 62° 348° (NNW) 08:28:29 435.350 FM
SEEDS 17 Oct 08:21:19 08:24:37 22° 92° (E) 08:27:55 437.485
XW-2B 17 Oct 08:23:18 08:27:00 57° 288° (WNW) 08:30:40 145.730 - 145.750
CUBEBUG 2 17 Oct 08:24:20 08:28:16 25° 91° (E) 08:32:06 437.445
NUDT-PHONESAT 17 Oct 08:27:13 08:30:54 69° 287° (WNW) 08:34:32 437.300
HO-68 17 Oct 08:35:33 08:42:32 49° 99° (E) 08:49:27 435.675
DOVE 4 17 Oct 08:36:53 08:40:24 21° 301° (WNW) 08:44:04 437.250
AO-73 17 Oct 08:40:16 08:41:19 11° 83° (E) 08:42:22 145.935
XW-2C 17 Oct 08:46:32 08:49:56 33° 293° (WNW) 08:53:18 145.795 - 145.815
AAUSAT CUBESAT 2 17 Oct 08:57:28 09:00:52 24° 93° (E) 09:04:14 437.432
ZACube-1 17 Oct 08:58:12 09:01:16 18° 88° (E) 09:04:17 437.345
SO-50 17 Oct 09:02:07 09:06:19 40° 122° (ESE) 09:10:32 436.795
UNISAT 6 17 Oct 09:05:47 09:09:06 19° 57° (ENE) 09:12:25 437.425
UWE-3 17 Oct 09:10:44 09:15:04 39° 96° (E) 09:19:17 435.000/436.395/437.385
O/OREOS (USA 219) 17 Oct 09:14:44 09:17:59 19° 258° (WSW) 09:21:13 437.305
YUBILEINY 17 Oct 09:20:10 09:26:27 23° 75° (ENE) 09:32:44 435.215
TIGRISAT 17 Oct 09:21:14 09:24:56 24° 60° (ENE) 09:28:39 435.000
CUTE-I 17 Oct 09:29:44 09:34:28 33° 299° (WNW) 09:39:13 437.470
XW-2A 17 Oct 09:29:51 09:33:14 67° 102° (ESE) 09:36:33 145.665 - 145.685
LilacSat-2 17 Oct 09:33:00 09:34:47 13° 303° (WNW) 09:36:33 437.200
XW-2F 17 Oct 09:36:22 09:38:09 13° 302° (WNW) 09:39:57 145.980 - 146.000
KAITUO 1B 17 Oct 09:41:24 09:43:20 14° 302° (WNW) 09:45:15 145.475/437.950
CUTE 1.7 + AOD 2 17 Oct 09:41:38 09:45:37 42° 292° (WNW) 09:49:35 437.475
Oscar 11 17 Oct 09:41:40 09:45:25 28° 94° (E) 09:49:07 .
RS-15 17 Oct 09:41:41 09:53:52 67° 36° (NE) 10:05:23 29.354- 29.394
XW-2D 17 Oct 09:46:34 09:47:10 10° 305° (NW) 09:47:46 145.860 - 145.880
PRISM 17 Oct 09:48:41 09:51:40 20° 60° (ENE) 09:54:39 437.425
FO-29 17 Oct 09:52:01 09:57:13 69° 257° (WSW) 10:02:50 435.910
SEEDS 17 Oct 09:56:32 10:00:32 46° 291° (WNW) 10:04:30 437.485
PCSat 17 Oct 09:57:03 10:01:49 33° 114° (ESE) 10:06:38 145.827
NO-84 17 Oct 09:58:18 10:02:19 60° 9° (N) 10:06:03 435.350 FM
STRAND 1 17 Oct 09:58:46 10:00:59 13° 276° (W) 10:03:12 437.568
CUBEBUG 2 17 Oct 10:00:32 10:05:08 50° 291° (WNW) 10:09:35 437.445
AO-7 17 Oct 10:11:57 10:14:23 12° 348° (NNW) 10:16:49 .
AO-73 17 Oct 10:13:54 10:18:23 78° 104° (ESE) 10:22:43 145.935
HO-68 17 Oct 10:23:28 10:30:16 46° 301° (WNW) 10:37:02 435.675
AAUSAT CUBESAT 2 17 Oct 10:32:36 10:36:29 41° 292° (WNW) 10:40:21 437.432
ZACube-1 17 Oct 10:33:33 10:38:01 64° 288° (WNW) 10:42:19 437.345
UNISAT 6 17 Oct 10:40:38 10:45:17 75° 257° (WSW) 10:50:01 437.425
SO-50 17 Oct 10:42:29 10:46:47 43° 324° (NW) 10:51:07 436.795
UWE-3 17 Oct 10:47:22 10:51:26 31° 296° (WNW) 10:55:23 435.000/436.395/437.385
EO-79 17 Oct 10:52:43 10:54:30 12° 53° (NE) 10:56:16 145.935-145.965
POLYITAN 1 17 Oct 10:56:00 10:58:03 13° 54° (NE) 11:00:05 437.675
TIGRISAT 17 Oct 10:56:40 11:01:15 59° 259° (W) 11:05:56 435.000
DELFI C3 17 Oct 11:01:47 11:05:34 42° 98° (E) 11:09:20 145.870
XW-2A 17 Oct 11:03:58 11:05:28 13° 301° (WNW) 11:06:58 145.665 - 145.685
Tancredo 1 17 Oct 11:09:41 11:10:28 12° 148° (SSE) 11:11:14 437.200
EO-88 17 Oct 11:10:06 11:13:18 28° 95° (E) 11:16:26 145.990 - 145.960
Max Valier Satellite 17 Oct 11:10:44 11:14:14 37° 98° (E) 11:17:40 145.860
AIST 2D 17 Oct 11:12:14 11:15:18 29° 67° (ENE) 11:18:23 435.315
YUBILEINY 17 Oct 11:13:16 11:21:59 85° 98° (E) 11:30:46 435.215
QB50P2 17 Oct 11:14:41 11:17:47 20° 59° (ENE) 11:20:54 145.880/145.840
Oscar 11 17 Oct 11:17:39 11:21:40 39° 293° (WNW) 11:25:39 .
NANOSAT C BR1 17 Oct 11:22:03 11:25:05 19° 59° (ENE) 11:28:08 145.865
PRISM 17 Oct 11:22:38 11:26:36 54° 259° (WSW) 11:30:37 437.425
DUCHIFAT 1 17 Oct 11:34:44 11:38:00 22° 60° (ENE) 11:41:18 145.980
NO-84 17 Oct 11:35:56 11:39:47 57° 211° (SSW) 11:43:17 435.350 FM
PCSat 17 Oct 11:39:39 11:45:01 57° 315° (NW) 11:50:23 145.827
FO-29 17 Oct 11:42:10 11:43:40 11° 280° (W) 11:45:11 435.910
AO-73 17 Oct 11:51:09 11:54:03 17° 303° (WNW) 11:56:54 145.935
RS-15 17 Oct 11:54:45 12:06:16 56° 244° (WSW) 12:17:10 29.354- 29.394
BUGSAT 1 17 Oct 11:59:23 12:01:21 13° 54° (NE) 12:03:20 437.445
AO-7 17 Oct 12:00:42 12:03:37 12° 16° (NNE) 12:06:33 .
ZACube-1 17 Oct 12:11:55 12:13:24 12° 308° (NW) 12:14:52 437.345
LO-87 17 Oct 12:12:21 12:15:14 22° 93° (E) 12:18:06 145.935 - 145.965
HO-68 17 Oct 12:12:35 12:16:22 15° 324° (NW) 12:20:07 435.675
Oscar 19 17 Oct 12:14:20 12:17:03 15° 50° (NE) 12:19:46 437.125/150
Gurwin Techsat 1B 17 Oct 12:16:13 12:18:09 12° 46° (NE) 12:20:05 435.225
UNISAT 6 17 Oct 12:21:18 12:22:50 11° 277° (W) 12:24:23 437.425
SO-50 17 Oct 12:25:03 12:28:19 19° 347° (NNW) 12:31:36 436.795
EO-79 17 Oct 12:25:15 12:29:30 74° 74° (ENE) 12:33:48 145.935-145.965
POLYITAN 1 17 Oct 12:28:51 12:33:08 79° 74° (ENE) 12:37:28 437.675
DELFI C3 17 Oct 12:36:58 12:40:07 23° 297° (WNW) 12:43:17 145.870
Tancredo 1 17 Oct 12:40:14 12:42:08 50° 166° (SSE) 12:44:02 437.200
ESTCUBE 1 17 Oct 12:43:29 12:47:34 34° 96° (E) 12:51:39 437.505/2401.250
EO-88 17 Oct 12:43:45 12:46:55 29° 294° (WNW) 12:50:05 145.990 - 145.960
Max Valier Satellite 17 Oct 12:44:56 12:47:53 23° 296° (WNW) 12:50:48 145.860
AIST 2D 17 Oct 12:45:30 12:48:29 26° 265° (W) 12:51:29 435.315
QB50P2 17 Oct 12:48:57 12:53:10 62° 258° (WSW) 12:57:27 145.880/145.840
NANOSAT C BR1 17 Oct 12:56:10 13:00:23 63° 258° (WSW) 13:04:39 145.865
nSIGHT-1 17 Oct 13:02:16 13:04:55 24° 148° (SSE) 13:07:35 .
DUCHIFAT 1 17 Oct 13:09:12 13:13:21 53° 259° (W) 13:17:34 145.980
YUBILEINY 17 Oct 13:12:37 13:19:57 29° 303° (WNW) 13:27:23 435.215
NO-84 17 Oct 13:14:48 13:16:23 12° 231° (SW) 13:17:55 435.350 FM
M-CUBED/EXP-1 PRIME 17 Oct 13:19:58 13:23:14 44° 63° (ENE) 13:26:23 437.505
ISS 17 Oct 13:25:12 13:28:07 30° 152° (SSE) 13:31:03 437.550
PCSat 17 Oct 13:25:21 13:29:32 22° 338° (NNW) 13:33:44 145.827
BUGSAT 1 17 Oct 13:31:49 13:36:00 80° 76° (ENE) 13:40:16 437.445
LO-87 17 Oct 13:45:23 13:48:46 37° 292° (WNW) 13:52:09 145.935 - 145.965
AO-7 17 Oct 13:47:07 13:53:39 27° 42° (NE) 14:00:12 .
Oscar 19 17 Oct 13:50:22 13:55:29 67° 70° (ENE) 14:00:37 437.125/150
Gurwin Techsat 1B 17 Oct 13:51:51 13:56:59 51° 67° (ENE) 14:02:08 435.225
BEESAT 3 17 Oct 13:58:45 14:02:06 26° 119° (ESE) 14:05:30 437.485
EO-79 17 Oct 14:03:17 14:05:48 15° 272° (W) 14:08:18 145.935-145.965
SO-50 17 Oct 14:07:05 14:10:20 19° 12° (NNE) 14:13:37 436.795
POLYITAN 1 17 Oct 14:07:10 14:09:29 14° 273° (W) 14:11:48 437.675
DX 1 17 Oct 14:09:28 14:11:46 14° 88° (E) 14:14:04 434.975-435.025
SPROUT 17 Oct 14:09:59 14:14:17 64° 102° (ESE) 14:18:33 437.525
RS-15 17 Oct 14:10:02 14:15:38 15° 269° (W) 14:21:07 29.354- 29.394
Tancredo 1 17 Oct 14:12:07 14:14:03 75° 184° (S) 14:15:58 437.200
ITAMSAT 1 17 Oct 14:18:00 14:20:41 14° 49° (NE) 14:23:21 435.822/435.867
ESTCUBE 1 17 Oct 14:20:20 14:24:23 35° 295° (WNW) 14:28:27 437.505/2401.250
VELOX 1 17 Oct 14:25:59 14:30:24 64° 102° (ESE) 14:34:49 145.980
AO-85 17 Oct 14:27:25 14:28:59 12° 111° (ESE) 14:30:35 145.980
nSIGHT-1 17 Oct 14:37:41 14:40:52 69° 169° (S) 14:44:05 .
UKube-1 17 Oct 14:40:53 14:43:54 18° 91° (E) 14:46:54 .
M-CUBED/EXP-1 PRIME 17 Oct 14:55:44 14:57:54 16° 261° (W) 15:00:02 437.505
ISS 17 Oct 15:01:06 15:04:22 77° 171° (S) 15:07:38 437.550
BUGSAT 1 17 Oct 15:09:48 15:11:56 14° 273° (W) 15:14:06 437.445
BEESAT 2 17 Oct 15:09:57 15:13:44 40° 123° (ESE) 15:17:34 435.950
PCSat 17 Oct 15:11:27 15:14:56 17° 5° (N) 15:18:25 145.827
50 SAT 17 Oct 15:21:19 15:24:39 85° 106° (ESE) 15:27:58 437.505
Oscar 19 17 Oct 15:31:20 15:35:17 22° 269° (W) 15:39:15 437.125/150
Gurwin Techsat 1B 17 Oct 15:32:34 15:37:11 30° 266° (W) 15:41:50 435.225
BEESAT 3 17 Oct 15:35:30 15:39:27 52° 319° (NW) 15:43:24 437.485
AO-7 17 Oct 15:37:04 15:45:20 78° 65° (ENE) 15:53:39 .
DX 1 17 Oct 15:44:09 15:48:32 83° 287° (WNW) 15:52:55 434.975-435.025
Tancredo 1 17 Oct 15:44:12 15:45:49 23° 204° (SSW) 15:47:26 437.200
SPROUT 17 Oct 15:46:42 15:49:47 19° 301° (WNW) 15:52:50 437.525
SO-50 17 Oct 15:47:35 15:51:55 41° 35° (NE) 15:56:18 436.795
ITAMSAT 1 17 Oct 15:54:05 15:59:12 64° 69° (ENE) 16:04:23 435.822/435.867
ITUPSAT 1 17 Oct 15:56:31 15:59:35 17° 88° (E) 16:02:37 437.325
MOZHAYETS 4 17 Oct 16:01:42 16:05:08 20° 90° (E) 16:08:33
VELOX 1 17 Oct 16:03:12 16:06:27 20° 302° (WNW) 16:09:43 145.980
AO-85 17 Oct 16:04:44 16:08:38 84° 130° (SE) 16:12:44 145.980
nSIGHT-1 17 Oct 16:13:55 16:17:07 79° 190° (S) 16:20:20 .
BEESAT 17 Oct 16:14:01 16:17:52 23° 92° (E) 16:21:42 436.000
UKube-1 17 Oct 16:16:02 16:20:19 62° 290° (WNW) 16:24:35 .
DOVE 4 17 Oct 16:33:35 16:36:35 19° 58° (ENE) 16:39:41 437.250
ISS 17 Oct 16:37:33 16:40:49 73° 191° (S) 16:44:06 437.550
BEESAT 2 17 Oct 16:47:44 16:51:31 37° 324° (NW) 16:55:21 435.950
PCSat 17 Oct 16:55:26 17:00:08 28° 30° (NNE) 17:04:47 145.827
50 SAT 17 Oct 16:55:55 16:56:26 10° 303° (WNW) 16:56:57 437.505
LilacSat-2 17 Oct 17:12:33 17:14:08 12° 56° (ENE) 17:15:42 437.200
BEESAT 3 17 Oct 17:15:01 17:17:50 18° 341° (NNW) 17:20:38 437.485
XW-2F 17 Oct 17:15:28 17:16:44 11° 56° (NE) 17:18:00 145.980 - 146.000
KAITUO 1B 17 Oct 17:20:46 17:21:17 10° 55° (NE) 17:21:48 145.475/437.950
DX 1 17 Oct 17:21:46 17:24:03 14° 306° (NW) 17:26:20 434.975-435.025
XW-2D 17 Oct 17:23:53 17:26:03 15° 59° (ENE) 17:28:13 145.860 - 145.880
HO-68 17 Oct 17:25:28 17:30:16 20° 42° (NE) 17:35:05 435.675
SO-50 17 Oct 17:28:05 17:32:28 45° 236° (SW) 17:36:54 436.795
AO-7 17 Oct 17:31:49 17:38:55 31° 267° (W) 17:46:04 .
ITUPSAT 1 17 Oct 17:33:10 17:38:01 80° 287° (WNW) 17:42:48 437.325
ITAMSAT 1 17 Oct 17:35:02 17:39:07 23° 269° (W) 17:43:14 435.822/435.867
XW-2B 17 Oct 17:36:36 17:39:17 18° 61° (ENE) 17:41:56 145.730 - 145.750
MOZHAYETS 4 17 Oct 17:38:09 17:42:42 60° 290° (WNW) 17:47:12
CUTE-I 17 Oct 17:38:16 17:42:38 26° 58° (ENE) 17:47:00 437.470
NUDT-PHONESAT 17 Oct 17:39:14 17:41:22 15° 59° (ENE) 17:43:29 437.300
CUBESAT XI-V 17 Oct 17:39:41 17:44:03 40° 97° (E) 17:48:22 437.345
AO-85 17 Oct 17:46:16 17:49:33 24° 334° (NNW) 17:52:58 145.980
nSIGHT-1 17 Oct 17:50:16 17:53:12 33° 207° (SSW) 17:56:07 .
BEESAT 17 Oct 17:51:16 17:55:59 56° 291° (WNW) 18:00:39 436.000
UKube-1 17 Oct 17:54:20 17:55:30 11° 309° (NW) 17:56:40 .
KKS-1 17 Oct 17:55:01 17:58:16 19° 91° (E) 18:01:29 437.445
XW-2C 17 Oct 17:58:49 18:02:08 29° 66° (ENE) 18:05:28 145.795 - 145.815
DOVE 4 17 Oct 18:09:43 18:13:51 62° 259° (W) 18:18:12 437.250
ISS 17 Oct 18:14:11 18:17:00 27° 210° (SSW) 18:19:50 437.550
BEESAT 2 17 Oct 18:27:46 18:30:18 16° 346° (NNW) 18:32:50 435.950
STARS 17 Oct 18:37:49 18:41:15 21° 92° (E) 18:44:41 437.465
PCSat 17 Oct 18:38:44 18:44:13 89° 235° (SW) 18:49:39 145.827
UWE-3 17 Oct 18:39:43 18:41:24 12° 51° (NE) 18:43:06 435.000/436.395/437.385
LilacSat-2 17 Oct 18:43:58 18:47:49 89° 42° (NE) 18:51:39 437.200
XW-2F 17 Oct 18:46:25 18:50:14 84° 72° (ENE) 18:54:01 145.980 - 146.000
KAITUO 1B 17 Oct 18:50:51 18:54:35 76° 75° (ENE) 18:58:20 145.475/437.950
BEESAT 3 17 Oct 18:54:45 18:56:51 14° 4° (N) 18:58:56 437.485
XW-2D 17 Oct 18:55:57 18:59:46 71° 258° (WSW) 19:03:34 145.860 - 145.880
CUTE 1.7 + AOD 2 17 Oct 19:03:46 19:07:38 35° 67° (ENE) 19:11:29 437.475
XW-2B 17 Oct 19:09:24 19:13:08 52° 260° (W) 19:16:52 145.730 - 145.750
HO-68 17 Oct 19:09:42 19:16:45 63° 65° (ENE) 19:23:52 435.675
NUDT-PHONESAT 17 Oct 19:11:03 19:14:46 68° 258° (WSW) 19:18:30 437.300
ITUPSAT 1 17 Oct 19:12:19 19:15:06 16° 308° (NW) 19:17:53 437.325
CUTE-I 17 Oct 19:17:03 19:22:19 63° 258° (WSW) 19:27:38 437.470
CUBESAT XI-V 17 Oct 19:17:17 19:21:19 31° 296° (WNW) 19:25:20 437.345
MOZHAYETS 4 17 Oct 19:17:29 19:18:57 11° 310° (NW) 19:20:23
SEEDS 17 Oct 19:17:58 19:21:41 32° 65° (ENE) 19:25:23 437.485
YUBILEINY 17 Oct 19:20:13 19:25:54 18° 45° (NE) 19:31:34 435.215
CUBEBUG 2 17 Oct 19:27:09 19:31:30 40° 67° (ENE) 19:35:57 437.445
AO-85 17 Oct 19:28:56 19:31:21 15° 359° (N) 19:33:51 145.980
KKS-1 17 Oct 19:30:47 19:35:14 62° 290° (WNW) 19:39:39 437.445
BEESAT 17 Oct 19:31:14 19:32:46 11° 312° (NW) 19:34:18 436.000
XW-2C 17 Oct 19:32:55 19:36:18 30° 264° (W) 19:39:42 145.795 - 145.815
AO-73 17 Oct 19:39:40 19:42:54 19° 58° (ENE) 19:46:07 145.935
AAUSAT CUBESAT 2 17 Oct 19:52:34 19:56:15 33° 66° (ENE) 19:59:56 437.432
ZACube-1 17 Oct 19:58:38 20:02:35 29° 63° (ENE) 20:06:32 437.345
XW-2A 17 Oct 20:05:46 20:09:07 54° 71° (ENE) 20:12:28 145.665 - 145.685
BEESAT 2 17 Oct 20:07:10 20:09:33 15° 10° (N) 20:11:56 435.950
UWE-3 17 Oct 20:12:21 20:16:56 61° 71° (ENE) 20:21:35 435.000/436.395/437.385
STARS 17 Oct 20:13:33 20:17:55 54° 291° (WNW) 20:22:14 437.465
STRAND 1 17 Oct 20:20:50 20:25:07 25° 92° (E) 20:29:22 437.568
LilacSat-2 17 Oct 20:22:01 20:22:40 10° 274° (W) 20:23:20 437.200
PCSat 17 Oct 20:23:13 20:26:54 19° 253° (WSW) 20:30:33 145.827
XW-2F 17 Oct 20:23:54 20:24:54 11° 274° (W) 20:25:52 145.980 - 146.000
KAITUO 1B 17 Oct 20:27:40 20:29:04 12° 273° (W) 20:30:30 145.475/437.950
BEESAT 3 17 Oct 20:32:23 20:35:42 24° 28° (NNE) 20:38:59 437.485
CUTE 1.7 + AOD 2 17 Oct 20:39:46 20:43:30 30° 265° (W) 20:47:16 437.475
Oscar 11 17 Oct 20:41:25 20:45:32 43° 68° (ENE) 20:49:38 .
SEEDS 17 Oct 20:53:33 20:57:21 33° 265° (W) 21:01:08 437.485
FO-29 17 Oct 20:54:40 20:58:25 15° 84° (E) 21:02:20 435.910
HO-68 17 Oct 20:58:32 21:04:56 34° 266° (W) 21:11:24 435.675
CUTE-I 17 Oct 21:02:11 21:03:28 11° 278° (W) 21:04:45 437.470
CUBEBUG 2 17 Oct 21:03:59 21:08:11 32° 266° (W) 21:12:29 437.445
KKS-1 17 Oct 21:09:26 21:10:55 12° 309° (NW) 21:12:25 437.445
AO-85 17 Oct 21:09:50 21:13:12 22° 23° (NNE) 21:16:45 145.980
AO-73 17 Oct 21:14:05 21:18:39 72° 258° (WSW) 21:23:15 145.935
YUBILEINY 17 Oct 21:16:20 21:25:01 59° 72° (ENE) 21:33:42 435.215
AAUSAT CUBESAT 2 17 Oct 21:28:04 21:31:43 30° 265° (W) 21:35:23 437.432
ZACube-1 17 Oct 21:34:19 21:38:42 43° 262° (W) 21:43:06 437.345
XW-2A 17 Oct 21:40:22 21:42:09 14° 270° (W) 21:43:57 145.665 - 145.685
BEESAT 2 17 Oct 21:44:45 21:48:27 31° 34° (NNE) 21:52:05 435.950
UWE-3 17 Oct 21:50:16 21:53:46 21° 270° (W) 21:57:20 435.000/436.395/437.385
DELFI C3 17 Oct 21:52:01 21:55:48 51° 70° (ENE) 21:59:37 145.870
EO-88 17 Oct 21:52:49 21:56:00 29° 66° (ENE) 21:59:12 145.990 - 145.960
STARS 17 Oct 21:52:51 21:53:18 10° 311° (NW) 21:53:45 437.465
O/OREOS (USA 219) 17 Oct 21:52:59 21:56:43 25° 104° (ESE) 22:00:30 437.305
Max Valier Satellite 17 Oct 21:54:28 21:57:58 39° 69° (ENE) 22:01:29 145.860
STRAND 1 17 Oct 21:59:35 22:04:39 57° 292° (WNW) 22:09:42 437.568
BEESAT 3 17 Oct 22:09:41 22:13:43 81° 229° (SW) 22:17:38 437.485
ESTCUBE 1 17 Oct 22:15:14 22:16:31 11° 51° (NE) 22:17:49 437.505/2401.250
Oscar 11 17 Oct 22:18:11 22:21:50 26° 267° (W) 22:25:29 .
UNISAT 6 17 Oct 22:27:34 22:30:40 17° 88° (E) 22:33:43 437.425
FO-29 17 Oct 22:37:59 22:44:30 67° 102° (ESE) 22:51:48 435.910
TIGRISAT 17 Oct 22:42:59 22:46:36 22° 90° (E) 22:50:09 435.000
AO-85 17 Oct 22:49:55 22:54:17 69° 44° (NE) 22:59:01 145.980
LO-87 17 Oct 22:53:36 22:56:25 22° 63° (ENE) 22:59:15 145.935 - 145.965
AO-73 17 Oct 22:54:40 22:55:42 11° 277° (W) 22:56:45 145.935
PRISM 17 Oct 22:59:15 23:01:25 14° 88° (E) 23:03:35 437.425
YUBILEINY 17 Oct 23:13:35 23:21:34 41° 275° (W) 23:29:36 435.215
BEESAT 2 17 Oct 23:22:25 23:26:22 52° 234° (SW) 23:30:17 435.950
EO-88 17 Oct 23:26:27 23:29:38 28° 265° (W) 23:32:51 145.990 - 145.960
DELFI C3 17 Oct 23:28:06 23:30:51 18° 269° (W) 23:33:37 145.870
Max Valier Satellite 17 Oct 23:29:02 23:31:57 21° 268° (W) 23:34:53 145.860
O/OREOS (USA 219) 17 Oct 23:31:24 23:35:52 51° 305° (NW) 23:40:23 437.305
SPROUT 17 Oct 23:34:39 23:37:11 16° 56° (NE) 23:39:45 437.525
STRAND 1 17 Oct 23:40:37 23:42:50 13° 312° (NW) 23:45:03 437.568
ESTCUBE 1 17 Oct 23:48:01 23:52:27 60° 70° (ENE) 23:56:53 437.505/2401.250
BEESAT 3 17 Oct 23:48:56 23:50:35 12° 249° (WSW) 23:52:12 437.485
VELOX 1 17 Oct 23:53:50 23:56:47 18° 57° (ENE) 23:59:44 145.980
UNISAT 6 18 Oct 00:03:13 00:07:55 73° 287° (WNW) 00:12:29 437.425
AIST 2D 18 Oct 00:04:52 00:07:08 16° 90° (E) 00:09:23 435.315
RS-15 18 Oct 00:17:55 00:24:49 17° 93° (E) 00:31:41 29.354- 29.394
TIGRISAT 18 Oct 00:19:03 00:23:39 57° 290° (WNW) 00:28:09 435.000
FO-29 18 Oct 00:23:39 00:29:16 33° 301° (WNW) 00:35:27 435.910
LO-87 18 Oct 00:26:15 00:29:38 38° 262° (W) 00:33:03 145.935 - 145.965
QB50P2 18 Oct 00:29:04 00:31:39 15° 88° (E) 00:34:12 145.880/145.840
AO-85 18 Oct 00:30:50 00:34:24 23° 243° (WSW) 00:38:10 145.980
PRISM 18 Oct 00:33:05 00:37:12 76° 289° (WNW) 00:41:19 437.425
NANOSAT C BR1 18 Oct 00:35:50 00:38:15 15° 88° (E) 00:40:40 145.865
DUCHIFAT 1 18 Oct 00:48:09 00:50:59 17° 89° (E) 00:53:46 145.980
SPROUT 18 Oct 01:08:14 01:12:31 84° 255° (WSW) 01:16:51 437.525
DX 1 18 Oct 01:09:40 01:13:14 25° 61° (ENE) 01:16:48 434.975-435.025
O/OREOS (USA 219) 18 Oct 01:14:06 01:16:24 13° 328° (NNW) 01:18:42 437.305
ESTCUBE 1 18 Oct 01:26:21 01:29:38 20° 270° (W) 01:32:55 437.505/2401.250
VELOX 1 18 Oct 01:28:22 01:32:44 74° 257° (WSW) 01:37:10 145.980
AIST 2D 18 Oct 01:37:13 01:40:34 45° 289° (WNW) 01:43:53 435.315
EO-79 18 Oct 01:39:47 01:44:04 63° 102° (ESE) 01:48:16 145.935-145.965
UKube-1 18 Oct 01:40:10 01:43:58 32° 64° (ENE) 01:47:48 .
UNISAT 6 18 Oct 01:41:30 01:43:48 14° 308° (NW) 01:46:06 437.425
POLYITAN 1 18 Oct 01:43:35 01:47:53 68° 103° (ESE) 01:52:07 437.675
BEESAT 18 Oct 01:52:22 01:53:16 10° 47° (NE) 01:54:11 436.000
50 SAT 18 Oct 01:54:51 01:58:07 70° 73° (ENE) 02:01:24 437.505
Oscar 19 18 Oct 01:57:25 02:00:20 15° 86° (E) 02:03:14 437.125/150
TIGRISAT 18 Oct 01:57:59 01:59:22 11° 310° (NW) 02:00:44 435.000
QB50P2 18 Oct 02:03:39 02:07:57 72° 286° (WNW) 02:12:12 145.880/145.840
Gurwin Techsat 1B 18 Oct 02:03:56 02:06:15 13° 84° (E) 02:08:34 435.225
PRISM 18 Oct 02:10:11 02:11:47 12° 306° (NW) 02:13:22 437.425
NANOSAT C BR1 18 Oct 02:10:13 02:14:30 75° 286° (WNW) 02:18:44 145.865
RS-15 18 Oct 02:22:36 02:34:31 59° 118° (ESE) 02:46:21 29.354- 29.394
DUCHIFAT 1 18 Oct 02:22:50 02:27:04 64° 288° (WNW) 02:31:16 145.980
M-CUBED/EXP-1 PRIME 18 Oct 02:27:42 02:29:03 12° 97° (E) 02:30:27 437.505
BUGSAT 1 18 Oct 02:43:03 02:47:18 63° 101° (ESE) 02:51:29 437.445
DX 1 18 Oct 02:45:02 02:49:12 46° 260° (W) 02:53:25 434.975-435.025
SPROUT 18 Oct 02:47:43 02:49:07 11° 275° (W) 02:50:31 437.525
ITUPSAT 1 18 Oct 03:08:01 03:12:24 36° 64° (ENE) 03:16:49 437.325
MOZHAYETS 4 18 Oct 03:08:28 03:12:44 37° 65° (ENE) 03:17:00
VELOX 1 18 Oct 03:09:32 03:09:59 10° 276° (W) 03:10:28 145.980
CUBESAT XI-V 18 Oct 03:13:47 03:16:04 14° 53° (NE) 03:18:21 437.345
UKube-1 18 Oct 03:16:00 03:19:57 35° 263° (W) 03:23:56 .
EO-79 18 Oct 03:16:20 03:19:25 20° 301° (WNW) 03:22:28 145.935-145.965
POLYITAN 1 18 Oct 03:20:15 03:23:12 18° 302° (WNW) 03:26:08 437.675
BEESAT 18 Oct 03:25:22 03:30:00 50° 67° (ENE) 03:34:39 436.000
50 SAT 18 Oct 03:30:48 03:30:54 10° 272° (W) 03:30:58 437.505
AO-7 18 Oct 03:33:42 03:38:41 17° 84° (E) 03:43:39 .
Oscar 19 18 Oct 03:35:16 03:40:27 87° 108° (ESE) 03:45:35 437.125/150
QB50P2 18 Oct 03:41:17 03:42:59 12° 307° (NW) 03:44:40 145.880/145.840
Gurwin Techsat 1B 18 Oct 03:41:49 03:47:10 73° 104° (ESE) 03:52:29 435.225
NANOSAT C BR1 18 Oct 03:47:40 03:49:29 13° 307° (NW) 03:51:16 145.865
M-CUBED/EXP-1 PRIME 18 Oct 04:00:28 04:03:52 69° 292° (WNW) 04:07:26 437.505
DUCHIFAT 1 18 Oct 04:00:46 04:01:54 11° 308° (NW) 04:03:03 145.980
ITAMSAT 1 18 Oct 04:02:30 04:05:20 14° 86° (E) 04:08:10 435.822/435.867
BUGSAT 1 18 Oct 04:19:12 04:22:15 19° 301° (WNW) 04:25:16 437.445
NO-84 18 Oct 04:33:52 04:35:35 12° 128° (SE) 04:37:17 435.350 FM
RS-15 18 Oct 04:34:51 04:47:09 66° 325° (NW) 04:59:17 29.354- 29.394
MOZHAYETS 4 18 Oct 04:45:43 04:49:55 33° 265° (W) 04:54:09
ITUPSAT 1 18 Oct 04:45:47 04:50:14 37° 263° (W) 04:54:42 437.325
CUBESAT XI-V 18 Oct 04:48:03 04:52:41 74° 73° (ENE) 04:57:19 437.345
KKS-1 18 Oct 04:57:58 05:02:00 35° 64° (ENE) 05:06:03 437.445
BEESAT 18 Oct 05:04:02 05:08:02 26° 267° (W) 05:12:03 436.000
Oscar 19 18 Oct 05:15:35 05:19:08 19° 306° (NW) 05:22:41 437.125/150
Gurwin Techsat 1B 18 Oct 05:22:30 05:26:39 24° 304° (NW) 05:30:47 435.225
